10-02-2023, 00:00:05,    296,    0.0,    0.0,   0.00,   0.00, 1030.8,   77.5, -999.0
10-02-2023, 00:00:14,    296,    0.0,    0.0,   0.00,   0.00, 1030.8,   77.5, -999.0
10-02-2023, 00:00:24,    296,    0.0,    0.0,   0.00,   0.00, 1030.8,   77.4, -999.0
10-02-2023, 00:00:34,    296,    0.0,    0.0,   0.00,   0.00, 1030.8,   77.4, -999.0
10-02-2023, 00:00:45,    296,    0.0,    0.0,   0.00,   0.00, 1030.8,   77.5, -999.0
10-02-2023, 00:00:54,    296,    0.0,    0.0,   0.00,   0.00, 1030.8,   77.5, -999.0
10-02-2023, 00:01:04,    296,    0.0,    0.0,   0.00,   0.00, 1030.8,   77.5, -999.0
10-02-2023, 00:01:14,    296,    0.0,   -0.1,   0.00,   0.00, 1030.8,   77.6, -999.0
10-02-2023, 00:01:24,    296,    0.0,    0.0,   0.00,   0.00, 1030.8,   77.6, -999.0
10-02-2023, 00:01:34,    296,    0.0,    0.0,   0.00,   0.00, 1030.8,   77.6, -999.0
10-02-2023, 00:01:44,    296,    0.0,    0.0,   0.00,   0.00, 1030.8,   77.6, -999.0
10-02-2023, 00:01:54,    296,    0.0,   -0.1,   0.00,   0.00, 1030.8,   77.5, -999.0
10-02-2023, 00:02:04,    296,    0.0,   -0.1,   0.00,   0.00, 1030.8,   77.7, -999.0
10-02-2023, 00:02:14,    296,    0.0,   -0.1,   0.00,   0.00, 1030.8,   77.7, -999.0
10-02-2023, 00:02:24,    296,    0.0,   -0.1,   0.00,   0.00, 1030.8,   77.7, -999.0
10-02-2023, 00:02:34,    296,    0.0,   -0.3,   0.00,   0.00, 1030.8,   77.7, -999.0
10-02-2023, 00:02:44,    296,    0.0,   -0.3,   0.00,   0.00, 1030.8,   77.8, -999.0
10-02-2023, 00:02:54,    297,    0.0,   -0.1,   0.00,   0.00, 1030.8,   78.0, -999.0
10-02-2023, 00:03:04,    296,    0.0,   -0.2,   0.00,   0.00, 1030.8,   78.0, -999.0
10-02-2023, 00:03:14,    296,    0.0,   -0.2,   0.00,   0.00, 1030.8,   78.1, -999.0
10-02-2023, 00:03:24,    296,    0.0,   -0.2,   0.00,   0.00, 1030.8,   78.2, -999.0
10-02-2023, 00:03:34,    296,    0.0,   -0.1,   0.00,   0.00, 1030.8,   78.2, -999.0
10-02-2023, 00:03:44,    296,    0.0,   -0.1,   0.00,   0.00, 1030.8,   78.2, -999.0
10-02-2023, 00:03:54,    296,    0.0,   -0.1,   0.00,   0.00, 1030.8,   78.4, -999.0
10-02-2023, 00:04:04,    296,    0.0,   -0.2,   0.00,   0.00, 1030.8,   78.4, -999.0
10-02-2023, 00:04:14,    296,    0.0,   -0.2,   0.00,   0.00, 1030.8,   78.2, -999.0
10-02-2023, 00:04:24,    296,    0.0,   -0.2,   0.00,   0.00, 1030.8,   78.2, -999.0
10-02-2023, 00:04:34,    296,    0.0,   -0.2,   0.00,   0.00, 1030.8,   78.2, -999.0
10-02-2023, 00:04:44,    296,    0.0,   -0.2,   0.00,   0.00, 1030.8,   78.2, -999.0
10-02-2023, 00:04:54,    296,    0.0,   -0.2,   0.00,   0.00, 1030.8,   78.2, -999.0
10-02-2023, 00:05:04,    296,    0.0,   -0.3,   0.00,   0.00, 1030.8,   78.2, -999.0
10-02-2023, 00:05:14,    296,    0.0,   -0.2,   0.00,   0.00, 1030.8,   78.3, -999.0
10-02-2023, 00:05:24,    296,    0.0,   -0.3,   0.00,   0.00, 1030.8,   78.4, -999.0
10-02-2023, 00:05:34,    296,    0.0,   -0.4,   0.00,   0.00, 1030.8,   78.4, -999.0
10-02-2023, 00:05:44,    295,    0.0,   -0.3,   0.00,   0.00, 1030.8,   78.5, -999.0
10-02-2023, 00:05:54,    296,    0.0,   -0.3,   0.00,   0.00, 1030.8,   78.4, -999.0
10-02-2023, 00:06:04,    296,    0.0,   -0.3,   0.00,   0.00, 1030.8,   78.6, -999.0
10-02-2023, 00:06:14,    296,    0.0,   -0.3,   0.00,   0.00, 1030.8,   78.5, -999.0
10-02-2023, 00:06:24,    298,    0.0,   -0.5,   0.00,   0.00, 1030.8,   78.6, -999.0
10-02-2023, 00:06:33,    296,    0.0,   -0.3,   0.00,   0.00, 1030.8,   78.4, -999.0
10-02-2023, 00:06:44,    296,    0.0,   -0.4,   0.00,   0.00, 1030.8,   78.6, -999.0
10-02-2023, 00:06:54,    296,    0.0,   -0.4,   0.00,   0.00, 1030.8,   78.6, -999.0
10-02-2023, 00:07:04,    296,    0.0,   -0.4,   0.00,   0.00, 1030.8,   78.6, -999.0
10-02-2023, 00:07:13,    296,    0.0,   -0.3,   0.00,   0.00, 1030.8,   78.6, -999.0
10-02-2023, 00:07:24,    296,    0.0,   -0.4,   0.00,   0.00, 1030.9,   78.7, -999.0
10-02-2023, 00:07:34,    296,    0.0,   -0.3,   0.00,   0.00, 1030.9,   78.8, -999.0
10-02-2023, 00:07:43,    296,    0.0,   -0.3,   0.00,   0.00, 1030.9,   79.0, -999.0
10-02-2023, 00:07:53,    296,    0.0,   -0.3,   0.00,   0.00, 1030.9,   79.0, -999.0
10-02-2023, 00:08:04,    295,    0.0,   -0.4,   0.00,   0.00, 1030.9,   79.0, -999.0
10-02-2023, 00:08:14,    296,    0.0,   -0.4,   0.00,   0.00, 1030.9,   79.1, -999.0
10-02-2023, 00:08:23,    295,    0.0,   -0.4,   0.00,   0.00, 1030.9,   79.3, -999.0
10-02-2023, 00:08:34,    295,    0.0,   -0.3,   0.00,   0.00, 1030.9,   79.4, -999.0
10-02-2023, 00:08:44,    295,    0.0,   -0.3,   0.00,   0.00, 1030.9,   79.4, -999.0
10-02-2023, 00:08:53,    295,    0.0,   -0.3,   0.00,   0.00, 1030.9,   79.5, -999.0
10-02-2023, 00:09:03,    296,    0.0,   -0.4,   0.00,   0.00, 1030.9,   79.5, -999.0
10-02-2023, 00:09:14,    295,    0.0,   -0.4,   0.00,   0.00, 1030.9,   79.4, -999.0
10-02-2023, 00:09:24,    294,    0.0,   -0.3,   0.00,   0.00, 1030.9,   79.6, -999.0
10-02-2023, 00:09:33,    295,    0.0,   -0.3,   0.00,   0.00, 1030.8,   79.7, -999.0
10-02-2023, 00:09:43,    294,    0.0,   -0.4,   0.00,   0.00, 1030.9,   79.7, -999.0
10-02-2023, 00:09:54,    295,    0.0,   -0.4,   0.00,   0.00, 1030.9,   79.6, -999.0
10-02-2023, 00:10:03,    295,    0.0,   -0.4,   0.00,   0.00, 1030.9,   79.7, -999.0
10-02-2023, 00:10:13,    295,    0.0,   -0.4,   0.00,   0.00, 1030.9,   79.8, -999.0
10-02-2023, 00:10:23,    295,    0.0,   -0.4,   0.00,   0.00, 1030.9,   79.9, -999.0
10-02-2023, 00:10:33,    295,    0.0,   -0.3,   0.00,   0.00, 1030.9,   79.9, -999.0
10-02-2023, 00:10:43,    295,    0.0,   -0.5,   0.00,   0.00, 1030.9,   79.9, -999.0
10-02-2023, 00:10:53,    295,    0.0,   -0.4,   0.00,   0.00, 1030.9,   79.9, -999.0
10-02-2023, 00:11:03,    291,    0.0,   -0.4,   0.00,   0.00, 1030.9,   79.9, -999.0
10-02-2023, 00:11:13,    228,    0.0,   -0.4,   0.00,   0.00, 1030.9,   79.9, -999.0
10-02-2023, 00:11:23,    228,    0.0,   -0.4,   0.00,   0.00, 1030.9,   80.1, -999.0
10-02-2023, 00:11:33,    229,    0.0,   -0.4,   0.00,   0.00, 1030.9,   80.0, -999.0
10-02-2023, 00:11:43,    228,    0.0,   -0.4,   0.00,   0.00, 1030.9,   80.0, -999.0
10-02-2023, 00:11:53,    229,    0.0,   -0.4,   0.00,   0.00, 1030.9,   80.0, -999.0
10-02-2023, 00:12:03,    228,    0.0,   -0.5,   0.00,   0.00, 1030.9,   80.2, -999.0
10-02-2023, 00:12:13,    228,    0.0,   -0.5,   0.00,   0.00, 1030.9,   80.3, -999.0
10-02-2023, 00:12:23,    229,    0.0,   -0.5,   0.00,   0.00, 1030.9,   80.4, -999.0
10-02-2023, 00:12:33,    228,    0.0,   -0.4,   0.00,   0.00, 1030.9,   80.5, -999.0
10-02-2023, 00:12:43,    229,    0.0,   -0.4,   0.00,   0.00, 1030.9,   80.5, -999.0
10-02-2023, 00:12:53,    228,    0.0,   -0.4,   0.00,   0.00, 1030.9,   80.5, -999.0
10-02-2023, 00:13:03,    234,    0.0,   -0.4,   0.00,   0.00, 1030.9,   80.6, -999.0
10-02-2023, 00:13:13,    229,    0.0,   -0.5,   0.00,   0.00, 1030.9,   80.4, -999.0
10-02-2023, 00:13:23,    229,    0.0,   -0.4,   0.00,   0.00, 1030.9,   80.5, -999.0
10-02-2023, 00:13:33,    229,    0.0,   -0.4,   0.00,   0.00, 1030.9,   80.5, -999.0
10-02-2023, 00:13:43,    229,    0.0,   -0.5,   0.00,   0.00, 1030.9,   80.6, -999.0
10-02-2023, 00:13:53,    228,    0.0,   -0.6,   0.00,   0.00, 1030.9,   80.7, -999.0
10-02-2023, 00:14:03,    228,    0.0,   -0.5,   0.00,   0.00, 1030.9,   80.8, -999.0
10-02-2023, 00:14:13,    228,    0.0,   -0.4,   0.00,   0.00, 1030.9,   80.8, -999.0
10-02-2023, 00:14:23,    229,    0.0,   -0.4,   0.00,   0.00, 1030.9,   80.6, -999.0
10-02-2023, 00:14:33,    228,    0.0,   -0.4,   0.00,   0.00, 1030.9,   80.6, -999.0
10-02-2023, 00:14:43,    228,    0.0,   -0.4,   0.00,   0.00, 1030.9,   80.5, -999.0
10-02-2023, 00:14:53,    228,    0.0,   -0.4,   0.00,   0.00, 1030.9,   80.6, -999.0
10-02-2023, 00:15:03,    228,    0.0,   -0.4,   0.00,   0.00, 1031.0,   80.6, -999.0
10-02-2023, 00:15:13,    228,    0.0,   -0.5,   0.00,   0.00, 1030.9,   80.7, -999.0
10-02-2023, 00:15:23,    228,    0.0,   -0.4,   0.00,   0.00, 1030.9,   80.7, -999.0
10-02-2023, 00:15:33,    228,    0.0,   -0.5,   0.00,   0.00, 1030.9,   80.8, -999.0
10-02-2023, 00:15:43,    229,    0.0,   -0.5,   0.00,   0.00, 1030.9,   80.8, -999.0
10-02-2023, 00:15:53,    228,    0.0,   -0.4,   0.00,   0.00, 1030.9,   80.8, -999.0
10-02-2023, 00:16:03,    228,    0.0,   -0.4,   0.00,   0.00, 1030.9,   80.8, -999.0
10-02-2023, 00:16:13,    228,    0.0,   -0.5,   0.00,   0.00, 1030.9,   80.8, -999.0
10-02-2023, 00:16:23,    228,    0.0,   -0.5,   0.00,   0.00, 1030.9,   80.9, -999.0
10-02-2023, 00:16:33,    228,    0.0,   -0.4,   0.00,   0.00, 1030.9,   80.8, -999.0
10-02-2023, 00:16:43,    229,    0.0,   -0.5,   0.00,   0.00, 1030.9,   80.9, -999.0
10-02-2023, 00:16:53,    229,    0.0,   -0.5,   0.00,   0.00, 1030.9,   80.8, -999.0
10-02-2023, 00:17:03,    228,    0.0,   -0.5,   0.00,   0.00, 1030.9,   80.8, -999.0
10-02-2023, 00:17:13,    229,    0.0,   -0.4,   0.00,   0.00, 1030.9,   80.7, -999.0
10-02-2023, 00:17:22,    229,    0.0,   -0.4,   0.00,   0.00, 1030.9,   80.9, -999.0
10-02-2023, 00:17:33,    229,    0.0,   -0.4,   0.00,   0.00, 1030.9,   80.9, -999.0
10-02-2023, 00:17:43,    229,    0.0,   -0.4,   0.00,   0.00, 1031.0,   80.9, -999.0
10-02-2023, 00:17:53,    228,    0.0,   -0.4,   0.00,   0.00, 1030.9,   80.9, -999.0
10-02-2023, 00:18:02,    228,    0.0,   -0.3,   0.00,   0.00, 1030.9,   80.8, -999.0
10-02-2023, 00:18:13,    228,    0.0,   -0.5,   0.00,   0.00, 1031.0,   80.9, -999.0
10-02-2023, 00:18:23,    228,    0.0,   -0.4,   0.00,   0.00, 1030.9,   80.9, -999.0
10-02-2023, 00:18:32,    228,    0.0,   -0.5,   0.00,   0.00, 1031.0,   81.0, -999.0
10-02-2023, 00:18:42,    229,    0.0,   -0.4,   0.00,   0.00, 1031.0,   80.9, -999.0
10-02-2023, 00:18:53,    229,    0.0,   -0.3,   0.00,   0.00, 1031.0,   80.9, -999.0
10-02-2023, 00:19:03,    228,    0.0,   -0.4,   0.00,   0.00, 1031.0,   80.9, -999.0
10-02-2023, 00:19:12,    229,    0.0,   -0.4,   0.00,   0.00, 1031.0,   81.1, -999.0
10-02-2023, 00:19:22,    228,    0.0,   -0.5,   0.00,   0.00, 1031.0,   81.0, -999.0
10-02-2023, 00:19:33,    229,    0.0,   -0.4,   0.00,   0.00, 1031.0,   80.9, -999.0
10-02-2023, 00:19:42,    228,    0.0,   -0.4,   0.00,   0.00, 1031.0,   80.9, -999.0
10-02-2023, 00:19:52,    229,    0.0,   -0.4,   0.00,   0.00, 1031.0,   80.9, -999.0
10-02-2023, 00:20:02,    228,    0.0,   -0.4,   0.00,   0.00, 1031.0,   80.8, -999.0
10-02-2023, 00:20:13,    228,    0.0,   -0.5,   0.00,   0.00, 1031.0,   80.7, -999.0
10-02-2023, 00:20:22,    229,    0.0,   -0.5,   0.00,   0.00, 1031.0,   80.7, -999.0
10-02-2023, 00:20:32,    229,    0.0,   -0.5,   0.00,   0.00, 1031.0,   80.7, -999.0
10-02-2023, 00:20:42,    228,    0.0,   -0.4,   0.00,   0.00, 1031.0,   80.6, -999.0
10-02-2023, 00:20:52,    228,    0.0,   -0.4,   0.00,   0.00, 1031.0,   80.7, -999.0
10-02-2023, 00:21:02,    228,    0.0,   -0.5,   0.00,   0.00, 1031.0,   80.6, -999.0
10-02-2023, 00:21:12,    229,    0.0,   -0.5,   0.00,   0.00, 1030.9,   80.7, -999.0
10-02-2023, 00:21:22,    228,    0.0,   -0.5,   0.00,   0.00, 1031.0,   80.7, -999.0
10-02-2023, 00:21:32,    229,    0.0,   -0.5,   0.00,   0.00, 1031.0,   80.7, -999.0
10-02-2023, 00:21:42,    229,    0.0,   -0.5,   0.00,   0.00, 1031.0,   80.8, -999.0
10-02-2023, 00:21:52,    229,    0.0,   -0.5,   0.00,   0.00, 1031.0,   80.9, -999.0
10-02-2023, 00:22:02,    229,    0.0,   -0.6,   0.00,   0.00, 1031.0,   81.0, -999.0
10-02-2023, 00:22:12,    228,    0.0,   -0.5,   0.00,   0.00, 1031.0,   80.9, -999.0
10-02-2023, 00:22:22,    229,    0.0,   -0.5,   0.00,   0.00, 1031.0,   80.9, -999.0
10-02-2023, 00:22:32,    228,    0.0,   -0.5,   0.00,   0.00, 1031.0,   81.0, -999.0
10-02-2023, 00:22:42,    229,    0.0,   -0.6,   0.00,   0.00, 1030.9,   80.9, -999.0
10-02-2023, 00:22:52,    228,    0.0,   -0.5,   0.00,   0.00, 1030.9,   81.0, -999.0
10-02-2023, 00:23:02,    229,    0.0,   -0.5,   0.00,   0.00, 1031.0,   81.2, -999.0
10-02-2023, 00:23:12,    229,    0.0,   -0.5,   0.00,   0.00, 1031.0,   81.2, -999.0
10-02-2023, 00:23:22,    229,    0.0,   -0.5,   0.00,   0.00, 1030.9,   81.3, -999.0
10-02-2023, 00:23:32,    228,    0.0,   -0.5,   0.00,   0.00, 1031.0,   81.3, -999.0
10-02-2023, 00:23:42,    229,    0.0,   -0.5,   0.00,   0.00, 1030.9,   81.4, -999.0
10-02-2023, 00:23:52,    228,    0.0,   -0.5,   0.00,   0.00, 1030.9,   81.4, -999.0
10-02-2023, 00:24:02,    229,    0.0,   -0.5,   0.00,   0.00, 1030.9,   81.4, -999.0
10-02-2023, 00:24:12,    230,    0.0,   -0.7,   0.00,   0.00, 1030.9,   81.4, -999.0
10-02-2023, 00:24:22,    229,    0.0,   -0.6,   0.00,   0.00, 1030.9,   81.3, -999.0
10-02-2023, 00:24:32,    229,    0.0,   -0.5,   0.00,   0.00, 1030.9,   81.3, -999.0
10-02-2023, 00:24:42,    229,    0.0,   -0.5,   0.00,   0.00, 1030.9,   81.4, -999.0
10-02-2023, 00:24:52,    229,    0.0,   -0.6,   0.00,   0.00, 1031.0,   81.5, -999.0
10-02-2023, 00:25:02,    229,    0.0,   -0.5,   0.00,   0.00, 1030.9,   81.4, -999.0
10-02-2023, 00:25:12,    230,    0.0,   -0.5,   0.00,   0.00, 1030.9,   81.5, -999.0
10-02-2023, 00:25:22,    229,    0.0,   -0.5,   0.00,   0.00, 1030.9,   81.5, -999.0
10-02-2023, 00:25:32,    229,    0.0,   -0.6,   0.00,   0.00, 1031.0,   81.6, -999.0
10-02-2023, 00:25:42,    229,    0.0,   -0.5,   0.00,   0.00, 1031.0,   81.8, -999.0
10-02-2023, 00:25:52,    229,    0.0,   -0.5,   0.00,   0.00, 1030.9,   81.8, -999.0
10-02-2023, 00:26:02,    229,    0.0,   -0.6,   0.00,   0.00, 1030.9,   81.7, -999.0
10-02-2023, 00:26:12,    229,    0.0,   -0.6,   0.00,   0.00, 1030.9,   81.8, -999.0
10-02-2023, 00:26:22,    229,    0.0,   -0.6,   0.00,   0.00, 1030.9,   81.7, -999.0
10-02-2023, 00:26:31,    229,    0.0,   -0.6,   0.00,   0.00, 1030.9,   81.8, -999.0
10-02-2023, 00:26:42,    229,    0.0,   -0.6,   0.00,   0.00, 1030.9,   81.7, -999.0
10-02-2023, 00:26:52,    229,    0.0,   -0.6,   0.00,   0.00, 1030.9,   81.8, -999.0
10-02-2023, 00:27:02,    228,    0.0,   -0.6,   0.00,   0.00, 1030.9,   81.9, -999.0
10-02-2023, 00:27:11,    228,    0.0,   -0.5,   0.00,   0.00, 1030.9,   81.9, -999.0
10-02-2023, 00:27:22,    228,    0.0,   -0.6,   0.00,   0.00, 1030.9,   82.0, -999.0
10-02-2023, 00:27:32,    228,    0.0,   -0.6,   0.00,   0.00, 1030.9,   81.9, -999.0
10-02-2023, 00:27:41,    228,    0.0,   -0.7,   0.00,   0.00, 1030.9,   81.9, -999.0
10-02-2023, 00:27:51,    228,    0.0,   -0.7,   0.00,   0.00, 1030.9,   81.8, -999.0
10-02-2023, 00:28:02,    228,    0.0,   -0.8,   0.00,   0.00, 1030.9,   81.7, -999.0
10-02-2023, 00:28:12,    228,    0.0,   -0.7,   0.00,   0.00, 1030.9,   81.8, -999.0
10-02-2023, 00:28:21,    229,    0.0,   -0.8,   0.00,   0.00, 1030.9,   81.8, -999.0
10-02-2023, 00:28:32,    228,    0.0,   -0.8,   0.00,   0.00, 1030.9,   81.8, -999.0
10-02-2023, 00:28:42,    229,    0.0,   -0.8,   0.00,   0.00, 1030.9,   81.8, -999.0
10-02-2023, 00:28:51,    229,    0.0,   -0.8,   0.00,   0.00, 1030.9,   82.0, -999.0
10-02-2023, 00:29:01,    229,    0.0,   -0.7,   0.00,   0.00, 1030.9,   82.1, -999.0
10-02-2023, 00:29:12,    233,    0.0,   -0.8,   0.00,   0.00, 1030.9,   82.1, -999.0
10-02-2023, 00:29:21,    234,    0.0,   -0.7,   0.00,   0.00, 1030.9,   82.1, -999.0
10-02-2023, 00:29:31,    235,    0.0,   -0.7,   0.00,   0.00, 1030.9,   82.3, -999.0
10-02-2023, 00:29:41,    235,    0.0,   -0.7,   0.00,   0.00, 1030.9,   82.5, -999.0
10-02-2023, 00:29:52,    235,    0.0,   -0.6,   0.00,   0.00, 1030.9,   82.6, -999.0
10-02-2023, 00:30:01,    235,    0.0,   -0.7,   0.00,   0.00, 1030.9,   82.6, -999.0
10-02-2023, 00:30:11,    234,    0.0,   -0.7,   0.00,   0.00, 1030.9,   82.7, -999.0
10-02-2023, 00:30:21,    235,    0.0,   -0.7,   0.00,   0.00, 1030.9,   82.6, -999.0
10-02-2023, 00:30:31,    235,    0.0,   -0.7,   0.00,   0.00, 1030.9,   82.7, -999.0
10-02-2023, 00:30:41,    235,    0.0,   -0.7,   0.00,   0.00, 1030.9,   82.7, -999.0
10-02-2023, 00:30:51,    234,    0.0,   -0.6,   0.00,   0.00, 1030.9,   82.7, -999.0
10-02-2023, 00:31:01,    235,    0.0,   -0.7,   0.00,   0.00, 1030.9,   82.7, -999.0
10-02-2023, 00:31:11,    235,    0.0,   -0.8,   0.00,   0.00, 1030.9,   82.6, -999.0
10-02-2023, 00:31:21,    235,    0.0,   -0.8,   0.00,   0.00, 1030.9,   82.5, -999.0
10-02-2023, 00:31:31,    235,    0.0,   -0.7,   0.00,   0.00, 1030.9,   82.5, -999.0
10-02-2023, 00:31:41,    235,    0.0,   -0.8,   0.00,   0.00, 1030.9,   82.4, -999.0
10-02-2023, 00:31:51,    234,    0.0,   -0.8,   0.00,   0.00, 1030.9,   82.5, -999.0
10-02-2023, 00:32:01,    235,    0.0,   -0.8,   0.00,   0.00, 1030.9,   82.4, -999.0
10-02-2023, 00:32:11,    235,    0.0,   -0.8,   0.00,   0.00, 1030.9,   82.4, -999.0
10-02-2023, 00:32:21,    235,    0.0,   -0.8,   0.00,   0.00, 1030.9,   82.5, -999.0
10-02-2023, 00:32:31,    235,    0.0,   -0.7,   0.00,   0.00, 1030.9,   82.5, -999.0
10-02-2023, 00:32:41,    235,    0.0,   -0.8,   0.00,   0.00, 1030.9,   82.5, -999.0
10-02-2023, 00:32:51,    235,    0.0,   -0.8,   0.00,   0.00, 1030.9,   82.5, -999.0
10-02-2023, 00:33:01,    235,    0.0,   -0.8,   0.00,   0.00, 1030.9,   82.5, -999.0
10-02-2023, 00:33:11,    235,    0.0,   -0.9,   0.00,   0.00, 1030.9,   82.5, -999.0
10-02-2023, 00:33:21,    235,    0.0,   -0.8,   0.00,   0.00, 1030.9,   82.5, -999.0
10-02-2023, 00:33:31,    235,    0.0,   -0.8,   0.00,   0.00, 1030.9,   82.5, -999.0
10-02-2023, 00:33:41,    235,    0.0,   -0.7,   0.00,   0.00, 1030.9,   82.6, -999.0
10-02-2023, 00:33:51,    235,    0.0,   -0.8,   0.00,   0.00, 1030.9,   82.8, -999.0
10-02-2023, 00:34:01,    236,    0.0,   -0.8,   0.00,   0.00, 1030.9,   82.9, -999.0
10-02-2023, 00:34:11,    236,    0.0,   -0.8,   0.00,   0.00, 1030.9,   82.9, -999.0
10-02-2023, 00:34:21,    235,    0.0,   -0.7,   0.00,   0.00, 1030.9,   82.9, -999.0
10-02-2023, 00:34:31,    235,    0.0,   -0.7,   0.00,   0.00, 1030.9,   83.0, -999.0
10-02-2023, 00:34:41,    235,    0.0,   -0.7,   0.00,   0.00, 1030.9,   82.9, -999.0
10-02-2023, 00:34:51,    235,    0.0,   -0.7,   0.00,   0.00, 1030.9,   82.9, -999.0
10-02-2023, 00:35:01,    235,    0.0,   -0.8,   0.00,   0.00, 1030.9,   83.0, -999.0
10-02-2023, 00:35:11,    235,    0.0,   -0.6,   0.00,   0.00, 1030.9,   82.9, -999.0
10-02-2023, 00:35:21,    235,    0.0,   -0.8,   0.00,   0.00, 1030.9,   82.8, -999.0
10-02-2023, 00:35:31,    235,    0.0,   -0.7,   0.00,   0.00, 1030.9,   82.7, -999.0
10-02-2023, 00:35:41,    236,    0.0,   -0.7,   0.00,   0.00, 1030.9,   82.7, -999.0
10-02-2023, 00:35:51,    235,    0.0,   -0.9,   0.00,   0.00, 1030.9,   82.7, -999.0
10-02-2023, 00:36:01,    235,    0.0,   -0.8,   0.00,   0.00, 1030.8,   82.6, -999.0
10-02-2023, 00:36:11,    235,    0.0,   -0.8,   0.00,   0.00, 1030.9,   82.6, -999.0
10-02-2023, 00:36:21,    236,    0.0,   -0.8,   0.00,   0.00, 1030.8,   82.6, -999.0
10-02-2023, 00:36:31,    236,    0.0,   -0.8,   0.00,   0.00, 1030.9,   82.5, -999.0
10-02-2023, 00:36:41,    235,    0.0,   -0.8,   0.00,   0.00, 1030.9,   82.4, -999.0
10-02-2023, 00:36:50,    234,    0.0,   -0.8,   0.00,   0.00, 1030.8,   82.4, -999.0
10-02-2023, 00:37:01,    235,    0.0,   -0.8,   0.00,   0.00, 1030.8,   82.3, -999.0
10-02-2023, 00:37:11,    235,    0.0,   -0.8,   0.00,   0.00, 1030.9,   82.4, -999.0
10-02-2023, 00:37:21,    235,    0.0,   -0.8,   0.00,   0.00, 1030.8,   82.3, -999.0
10-02-2023, 00:37:30,    235,    0.0,   -0.8,   0.00,   0.00, 1030.8,   82.4, -999.0
10-02-2023, 00:37:41,    235,    0.0,   -0.8,   0.00,   0.00, 1030.8,   82.4, -999.0
10-02-2023, 00:37:51,    235,    0.0,   -0.8,   0.00,   0.00, 1030.8,   82.4, -999.0
10-02-2023, 00:38:00,    235,    0.0,   -0.9,   0.00,   0.00, 1030.8,   82.4, -999.0
10-02-2023, 00:38:11,    236,    0.0,   -0.8,   0.00,   0.00, 1030.8,   82.4, -999.0
10-02-2023, 00:38:21,    235,    0.0,   -0.8,   0.00,   0.00, 1030.9,   82.4, -999.0
10-02-2023, 00:38:30,    235,    0.0,   -0.8,   0.00,   0.00, 1030.8,   82.6, -999.0
10-02-2023, 00:38:40,    235,    0.0,   -0.9,   0.00,   0.00, 1030.8,   82.6, -999.0
10-02-2023, 00:38:51,    235,    0.0,   -0.9,   0.00,   0.00, 1030.9,   82.7, -999.0
10-02-2023, 00:39:01,    235,    0.0,   -0.9,   0.00,   0.00, 1030.8,   82.7, -999.0
10-02-2023, 00:39:10,    235,    0.0,   -0.8,   0.00,   0.00, 1030.9,   82.7, -999.0
10-02-2023, 00:39:20,    235,    0.0,   -0.8,   0.00,   0.00, 1030.8,   82.6, -999.0
10-02-2023, 00:39:31,    235,    0.0,   -0.8,   0.00,   0.00, 1030.9,   82.6, -999.0
10-02-2023, 00:39:40,    235,    0.0,   -0.8,   0.00,   0.00, 1030.9,   82.6, -999.0
10-02-2023, 00:39:50,    235,    0.0,   -0.8,   0.00,   0.00, 1030.9,   82.7, -999.0
10-02-2023, 00:40:00,    235,    0.0,   -0.8,   0.00,   0.00, 1030.9,   82.7, -999.0
10-02-2023, 00:40:10,    236,    0.0,   -0.9,   0.00,   0.00, 1030.9,   82.7, -999.0
10-02-2023, 00:40:20,    236,    0.0,   -0.8,   0.00,   0.00, 1030.9,   82.6, -999.0
10-02-2023, 00:40:30,    235,    0.0,   -0.9,   0.00,   0.00, 1030.9,   82.6, -999.0
10-02-2023, 00:40:41,    235,    0.0,   -0.9,   0.00,   0.00, 1030.9,   82.5, -999.0
10-02-2023, 00:40:50,    235,    0.0,   -0.8,   0.00,   0.00, 1030.9,   82.5, -999.0
10-02-2023, 00:41:00,    235,    0.0,   -0.9,   0.00,   0.00, 1030.9,   82.5, -999.0
10-02-2023, 00:41:10,    235,    0.0,   -0.8,   0.00,   0.00, 1030.9,   82.5, -999.0
10-02-2023, 00:41:20,    235,    0.0,   -0.8,   0.00,   0.00, 1030.9,   82.6, -999.0
10-02-2023, 00:41:30,    235,    0.0,   -0.8,   0.00,   0.00, 1030.9,   82.7, -999.0
10-02-2023, 00:41:40,    236,    0.0,   -0.8,   0.00,   0.00, 1030.9,   82.7, -999.0
10-02-2023, 00:41:50,    235,    0.0,   -0.9,   0.00,   0.00, 1030.9,   82.8, -999.0
10-02-2023, 00:42:00,    235,    0.0,   -0.8,   0.00,   0.00, 1030.9,   82.7, -999.0
10-02-2023, 00:42:10,    236,    0.0,   -0.8,   0.00,   0.00, 1030.9,   82.6, -999.0
10-02-2023, 00:42:20,    235,    0.0,   -0.8,   0.00,   0.00, 1030.9,   82.6, -999.0
10-02-2023, 00:42:30,    235,    0.0,   -0.8,   0.00,   0.00, 1030.9,   82.5, -999.0
10-02-2023, 00:42:40,    235,    0.0,   -0.8,   0.00,   0.00, 1030.9,   82.5, -999.0
10-02-2023, 00:42:50,    235,    0.0,   -0.8,   0.00,   0.00, 1030.9,   82.5, -999.0
10-02-2023, 00:43:00,    235,    0.0,   -0.8,   0.00,   0.00, 1030.9,   82.5, -999.0
10-02-2023, 00:43:10,    235,    0.0,   -0.9,   0.00,   0.00, 1030.9,   82.4, -999.0
10-02-2023, 00:43:20,    236,    0.0,   -0.8,   0.00,   0.00, 1030.9,   82.5, -999.0
10-02-2023, 00:43:30,    235,    0.0,   -0.8,   0.00,   0.00, 1030.9,   82.5, -999.0
10-02-2023, 00:43:40,    235,    0.0,   -0.9,   0.00,   0.00, 1030.9,   82.5, -999.0
10-02-2023, 00:43:50,    235,    0.0,   -0.9,   0.00,   0.00, 1030.9,   82.7, -999.0
10-02-2023, 00:44:00,    235,    0.0,   -0.8,   0.00,   0.00, 1030.9,   82.7, -999.0
10-02-2023, 00:44:10,    236,    0.0,   -0.8,   0.00,   0.00, 1030.9,   82.8, -999.0
10-02-2023, 00:44:20,    235,    0.0,   -0.8,   0.00,   0.00, 1030.9,   82.9, -999.0
10-02-2023, 00:44:30,    235,    0.0,   -0.8,   0.00,   0.00, 1030.9,   82.9, -999.0
10-02-2023, 00:44:40,    236,    0.0,   -0.8,   0.00,   0.00, 1030.9,   82.9, -999.0
10-02-2023, 00:44:50,    235,    0.0,   -0.7,   0.00,   0.00, 1030.9,   82.9, -999.0
10-02-2023, 00:45:00,    235,    0.0,   -0.8,   0.00,   0.00, 1030.9,   82.9, -999.0
10-02-2023, 00:45:10,    235,    0.0,   -0.7,   0.00,   0.00, 1030.9,   83.0, -999.0
10-02-2023, 00:45:20,    236,    0.0,   -0.7,   0.00,   0.00, 1030.9,   83.0, -999.0
10-02-2023, 00:45:30,    235,    0.0,   -0.7,   0.00,   0.00, 1030.9,   83.0, -999.0
10-02-2023, 00:45:40,    235,    0.0,   -0.7,   0.00,   0.00, 1030.9,   83.0, -999.0
10-02-2023, 00:45:50,    235,    0.0,   -0.7,   0.00,   0.00, 1030.9,   82.9, -999.0
10-02-2023, 00:46:00,    235,    0.0,   -0.6,   0.00,   0.00, 1030.9,   82.9, -999.0
10-02-2023, 00:46:10,    235,    0.0,   -0.6,   0.00,   0.00, 1030.9,   82.9, -999.0
10-02-2023, 00:46:20,    235,    0.0,   -0.6,   0.00,   0.00, 1030.9,   82.8, -999.0
10-02-2023, 00:46:30,    235,    0.0,   -0.7,   0.00,   0.00, 1030.9,   82.7, -999.0
10-02-2023, 00:46:40,    235,    0.0,   -0.7,   0.00,   0.00, 1030.9,   82.7, -999.0
10-02-2023, 00:46:50,    235,    0.0,   -0.5,   0.00,   0.00, 1030.9,   82.6, -999.0